Weather in Verkh-Katavka

Russia / Chelyabinsk Oblast     54°37′07″N   58°16′57″E
temp.,
°C
wind,
m/s
gust,
m/s
humid.,
%
clouds,
%
prec.,
mm/h
press.,
hPa
HPBL,
m
17 may, tue
tue1723:00+6sw3109881 1.6 1000516
02:00+5wsw41093100 0.1 1001769
05:00+5sw289798 0.3 1002635
08:00+6wsw389196 0.2 1002612
11:00+10wsw367077 0.4 10021277
14:00+10wsw356885 0.6 10021236
17:00+11sw4667100 1.3 10021207
20:00+8ssw3787100 1.3 1003461
18 may, wed
wed1823:00+5wsw3109761 1.4 1005573
02:00+4sw259787 0.0 1005122
05:00+2ssw24950 0.0 100671
08:00+7sse267786 0.0 1004481
11:00+7s3785100 0.6 1003879
14:00+7ssw3681100 0.6 1003895
17:00+8wsw4676100 1.1 10021040
20:00+6wsw2790100 0.7 1003582
19 may, thu
thu1923:00+5wsw3995100 1.1 1004725
02:00+4wsw399595 0.1 1004810
05:00+4wsw3994100 0.2 1004977
08:00+4wsw3898100 0.6 10061015
11:00+2w3994100 1.1 1009877
14:00+5wsw488299 0.2 10101093
17:00+4wsw3995100 0.8 10101015
20:00+4sw2896100 0.6 1009777
20 may, fri
fri2023:00+2sw269871 0.8 1010204
02:00+3wsw3996100 0.1 1009760
05:00+2wsw1394100 0.2 1009142
08:00+3wsw1288100 0.1 1008378
11:00+6w1171100 0.1 1006974
14:00+7nw1161100 0.2 10051045
17:00+8nw116498 1.3 1003993
20:00+6nw118589 1.3 100314
21 may, sat
sat2123:00+3wsw119679 2.3 100414
02:00+3wsw2497100 0.6 1003218
05:00+2w2399100 1.4 1003232
08:00+1w239696 1.8 1003336
11:00+1wnw2399100 3.4 1004234
14:000wnw2899100 4.4 1005516
17:000wnw4896100 5.1 1006828
20:000nw3999100 0.7 1006545